Weather History for Georgetown, DE

Change the Weather History Date:

Wednesday, February 27, 2013

  Actual Average Record
Temperature  
Mean Temperature 50 °F 40 °F  
Max Temperature 58 °F 49 °F 69 °F (1977)
Min Temperature 42 °F 30 °F 10 °F (1963)
Degree Days  
Heating Degree Days 15 25  
Month to date heating degree days 741 744  
Since 1 July heating degree days 2959 3254  
Cooling Degree Days 0 0  
Month to date cooling degree days 0 0  
Year to date cooling degree days 0 0  
Moisture  
Dew Point 44 °F    
Average Humidity 74    
Maximum Humidity 100    
Minimum Humidity 47    
Precipitation  
Precipitation T in 0.11 in 1.01 in (1958)
Month to date precipitation 1.97 2.68  
Year to date precipitation 4.77 5.60  
Sea Level Pressure  
Sea Level Pressure 29.59 in    
Wind  
Wind Speed 8 mph (SW)    
Max Wind Speed 22 mph    
Max Gust Speed 39 mph    
Visibility 8 miles    
Events Fog    
T = Trace of Precipitation, MM = Missing Value Source: NWS Daily Summary

Daily Weather History Graph

Daily Weather History Graph

Search for Another Location

Airport:

Trip Planner

Search our weather history database for the weather conditions in past years. The results will help you decide how hot, cold, wet, or windy it might be!

Date:

Astronomy

Feb. 27, 2013 Rise Set
Actual Time 6:36 AM EST 5:52 PM EST
Civil Twilight 6:09 AM EST 6:19 PM EST
Nautical Twilight 5:38 AM EST 6:50 PM EST
Astronomical Twilight 5:08 AM EST 7:20 PM EST
Moon 8:09 PM EST (2/27) 7:12 AM EST (2/27)
Length of Visible Light 12h 09m
Length of Day
11h 16m
Waning Gibbous, 96% of the Moon is Illuminated
Feb 27
Waning Gibbous
Mar 4
Last Quarter
Mar 11
New
Mar 19
First Quarter
Mar 27
Full

Hourly Weather History & Observations

Time (EST) Temp. Windchill Dew Point Humidity Pressure Visibility Wind Dir Wind Speed Gust Speed Precip Events Conditions
12:54 AM 55.0 °F - - N/A% 29.59 in 10.0 mi SE 17.3 mph 25.3 mph N/A   Overcast
1:54 AM 54.0 °F - - N/A% 29.56 in 5.0 mi SE 6.9 mph - 0.00 in   Haze
2:47 AM 53.6 °F - 53.6 °F 100% 29.54 in 2.0 mi SE 4.6 mph - N/A   Overcast
2:54 AM 53.1 °F - 53.1 °F 100% 29.53 in 1.2 mi ESE 5.8 mph - N/A   Overcast
3:01 AM 53.6 °F - 53.6 °F 100% 29.52 in 0.8 mi ESE 4.6 mph - N/A   Overcast
3:54 AM 53.1 °F - 53.1 °F 100% 29.51 in 0.2 mi South 4.6 mph - N/A Fog Fog
4:54 AM 53.1 °F - 53.1 °F 100% 29.50 in 0.5 mi South 6.9 mph - N/A Fog Fog
5:57 AM 53.6 °F - 51.8 °F 94% 29.51 in 1.2 mi SW 10.4 mph - N/A   Overcast
6:17 AM 51.8 °F - 51.8 °F 100% 29.52 in 10.0 mi SW 12.7 mph - N/A   Overcast
6:43 AM 51.8 °F - 48.2 °F 88% 29.51 in 10.0 mi SW 11.5 mph 19.6 mph N/A   Overcast
6:54 AM 50.0 °F - 48.9 °F 96% 29.53 in 10.0 mi SW 12.7 mph - N/A   Overcast
7:02 AM 50.0 °F - 48.2 °F 94% 29.52 in 10.0 mi SW 12.7 mph - N/A   Overcast
7:54 AM 51.1 °F - 46.9 °F 86% 29.55 in 10.0 mi WSW 10.4 mph - N/A   Overcast
8:20 AM 50.0 °F - 46.4 °F 87% 29.56 in 10.0 mi WSW 15.0 mph 23.0 mph N/A   Overcast
8:37 AM 50.0 °F - 46.4 °F 87% 29.57 in 10.0 mi WSW 11.5 mph 21.9 mph N/A   Overcast
8:54 AM 50.0 °F - 46.0 °F 86% 29.58 in 10.0 mi WSW 11.5 mph 18.4 mph N/A   Overcast
10:26 AM 46.4 °F 40.1 °F 41.0 °F 81% 29.62 in 10.0 mi West 15.0 mph 39.1 mph N/A   Overcast
10:54 AM 48.9 °F - 42.1 °F 77% 29.62 in 10.0 mi West 11.5 mph 17.3 mph N/A   Mostly Cloudy
10:57 AM 48.2 °F - 41.0 °F 76% 29.62 in 10.0 mi West 9.2 mph 16.1 mph N/A   Scattered Clouds
11:54 AM 53.1 °F - 39.9 °F 61% 29.62 in 10.0 mi WNW 12.7 mph 23.0 mph N/A   Partly Cloudy
12:54 PM 54.0 °F - 37.9 °F 55% 29.63 in 10.0 mi WNW 11.5 mph 23.0 mph N/A   Scattered Clouds
1:54 PM 55.0 °F - 37.9 °F 53% 29.62 in 10.0 mi West 13.8 mph 20.7 mph N/A   Partly Cloudy
2:54 PM 55.0 °F - 37.0 °F 51% 29.64 in 10.0 mi West 10.4 mph 21.9 mph N/A   Mostly Cloudy
3:54 PM 55.9 °F - 36.0 °F 47% 29.64 in 10.0 mi Variable 5.8 mph 19.6 mph N/A   Clear
4:54 PM 55.9 °F - 37.0 °F 49% 29.64 in 10.0 mi WNW 8.1 mph - N/A   Clear
5:54 PM 54.0 °F - 37.0 °F 53% 29.67 in 10.0 mi Calm Calm - N/A   Overcast
6:54 PM 51.1 °F - 39.9 °F 66% 29.68 in 10.0 mi Calm Calm - N/A   Unknown
7:54 PM 50.0 °F - 39.9 °F 68% 29.68 in 10.0 mi South 4.6 mph - N/A   Overcast
9:54 PM 50.0 °F - 41.0 °F 71% 29.69 in 10.0 mi Calm Calm - N/A   Overcast
10:54 PM 50.0 °F - 39.9 °F 68% 29.69 in 10.0 mi Calm Calm - N/A   Overcast
11:54 PM 42.1 °F 40.2 °F 39.0 °F 89% 29.66 in 10.0 mi ESE 3.5 mph - N/A   Mostly Cloudy